Location: Unspecified
(48.7670°N, 0.0000°E)
Time: 09:32:26
(UTC+00:00)

Vanguard 2 Rocket - Pass Details

Date: 18 June 2019
Orbit: 554 x 3326 km, 32.9° (Epoch: 18 July)

Event Time Altitude Azimuth Distance (km) Brightness Sun altitude
Rises 22:12:34 0° 219° (SW) 4,460 10.2 -13.8°
Reaches altitude 10° 22:15:33 10° 208° (SSW) 3,827 9.7 -14.1°
Maximum altitude 22:24:29 31° 151° (SSE) 3,360 9.2 -14.7°
Drops below altitude 10° 22:37:51 10° 99° (E) 5,801 10.7 -15.5°
Sets 22:43:44 0° 91° (E) 7,104 11.2 -15.8°
